Temperature
16 16 16 16 16 16 16 16 16 16 16 16 16 16 16 16 16 16 16 15 15 15 15 15 15 15 15 15 15 15 15 15 15 15 15 15 15 15 15 15 15 15 15
16 16 16 16 16 16 16 16 16 16 16 15 15 15 15 16 15 15 15 15 15 15 15 15 15 15 15 15 15 15 15 15 15 15 15 15 15 15 15 15 15 15 15
16 16 16 16 16 16 15 15 15 15 15 15 15 15 15 15 15 15 15 15 15 15 15 15 15 15 15 15 15 15 15 15 15 15 15 15 15 15 15 14 15 15 15
16 16 16 16 15 15 15 15 15 15 15 15 15 15 15 15 15 15 15 15 15 15 15 15 15 14 14 14 14 14 14 14 14 14 14 14 14 14 14 14 14 14 14
16 16 16 15 15 15 15 15 15 15 15 15 15 15 15 15 15 14 15 15 14 14 14 14 14 14 14 14 14 14 14 14 14 14 14 14 14 14 14 14 14 14 14
16 16 15 15 15 15 15 15 15 15 15 15 15 15 15 14 14 14 14 14 14 14 14 14 14 14 14 14 14 14 14 14 14 13 13 13 13 13 14 14 14 14 14
16 16 15 15 15 15 15 15 15 15 15 15 15 14 14 14 14 14 14 14 14 14 14 14 14 14 14 14 14 14 14 14 13 13 13 13 13 13 13 13 13 13 13
15 15 15 15 15 15 15 15 14 14 14 14 14 14 14 14 14 14 14 14 14 14 14 14 14 13 13 14 14 13 13 13 13 13 13 13 13 14 13 13 13 13 13
15 15 15 15 15 15 15 14 14 14 14 14 14 14 14 13 13 14 14 14 14 14 13 13 13 13 13 13 13 13 13 13 13 13 13 13 13 13 13 13 13 13 13
15 15 15 15 15 15 15 14 14 14 14 14 14 14 14 13 13 13 13 13 13 13 13 13 13 13 13 13 13 13 13 13 13 13 13 13 13 13 13 13 13 13 13
15 15 15 15 15 15 14 14 14 14 14 14 14 14 14 13 13 13 13 13 13 13 13 13 13 13 13 13 13 13 13 13 13 13 13 13 13 13 13 13 13 13 13
15 15 15 15 15 14 14 14 14 14 14 14 13 13 13 13 13 13 13 13 13 13 13 13 13 13 13 13 13 13 12 12 12 13 13 13 13 12 13 13 12 12 12
15 15 15 15 14 14 14 14 14 14 14 13 13 13 13 13 13 13 13 13 12 12 12 12 12 12 12 12 12 12 12 12 12 12 12 12 12 12 12 12 12 12 12
15 15 14 14 14 14 14 14 14 14 14 13 13 13 13 13 13 13 13 13 12 12 12 12 12 12 12 12 12 12 12 12 12 12 12 12 12 12 12 12 12 12 12
15 14 14 14 14 14 14 14 14 14 13 13 13 13 13 13 13 13 13 13 13 12 12 12 12 12 12 12 12 12 12 12 12 12 12 12 11 11 12 12 12 12 12
14 14 14 14 14 14 14 14 14 13 13 13 13 13 13 13 13 13 13 13 13 13 12 12 12 12 12 12 12 11 11 11 11 11 11 11 11 11 11 11 11 11 11
14 14 14 14 14 14 14 14 13 13 13 13 13 13 13 13 13 13 13 12 12 12 12 12 12 12 12 12 12 11 11 11 11 11 11 11 11 11 11 11 11 11 11
14 14 14 14 14 13 13 13 13 13 13 13 13 13 13 13 12 12 12 12 12 12 12 12 12 12 12 11 11 11 11 11 11 11 11 11 11 11 11 11 11 11 11
13 13 13 13 13 13 13 13 13 13 13 13 13 13 12 12 12 12 12 12 12 12 12 12 12 11 11 11 11 11 11 11 11 11 11 11 11 11 11 11 11 10 10
13 13 13 13 13 13 13 13 13 13 13 13 13 12 12 12 12 12 12 12 12 12 11 11 11 11 11 11 11 11 11 11 11 11 11 10 10 10 10 10 10 10 10
13 13 13 13 13 13 13 12 12 12 12 12 12 12 12 12 12 12 12 12 12 11 11 11 11 11 11 11 11 10 10 10 10 10 10 10 10 10 10 10 10 10 10
13 12 12 12 12 12 12 12 12 12 12 12 12 12 12 12 12 12 12 11 11 11 11 11 11 11 11 11 10 10 10 10 10 10 10 10 10 10 10 10 10 10 10
12 12 12 12 12 12 12 11 11 11 12 12 12 11 11 11 12 12 11 11 11 11 11 11 11 11 11 11 10 10 10 10 10 10 10 10 10 10 10 10 10 9 10
12 12 12 11 11 11 11 11 11 11 11 11 11 11 11 11 11 11 11 11 11 11 11 11 11 11 11 10 10 10 10 10 9 9 9 9 9 9 9 9 9 9 9
11 11 11 11 11 11 11 11 11 11 11 11 11 11 11 11 11 10 11 11 11 11 10 10 10 10 10 10 10 10 10 9 9 9 9 9 9 9 9 9 9 9 9
11 11 11 10 10 10 10 10 10 11 11 11 10 10 10 10 10 10 10 10 10 10 10 10 10 10 10 10 9 9 9 9 9 9 8 8 8 8 8 9 9 9 9
Wind_Speed
3 2 2 2 3 3 3 2 2 3 4 5 5 6 5 5 6 6 7 9 10 10 9 9 9 9 9 9 9 9 9 9 9 9 9 8 8 8 8 8 7 6 6
4 3 2 2 2 2 3 3 3 3 3 4 4 4 4 4 5 6 7 8 9 9 9 8 8 8 8 9 9 9 10 9 9 9 8 8 8 7 7 7 7 7 6
5 4 3 2 2 3 4 4 4 4 4 4 3 3 4 4 4 5 6 6 6 7 8 8 7 7 7 8 8 9 9 9 9 9 8 8 7 7 7 6 6 6 6
6 5 3 2 2 4 4 3 3 3 3 3 2 2 2 3 3 4 4 4 4 4 6 6 6 6 6 7 7 8 8 8 8 8 8 7 6 6 6 6 5 5 5
7 5 3 2 4 3 3 3 3 3 3 2 2 2 2 1 1 3 3 3 4 4 4 5 5 5 5 5 6 6 6 6 7 7 6 6 6 6 6 5 5 5 5
6 6 4 3 4 3 2 2 2 2 2 2 2 2 2 1 1 1 1 2 3 4 4 4 4 4 4 4 5 5 5 5 5 6 6 6 6 6 6 5 5 5 5
6 5 3 3 3 3 2 2 2 3 2 2 3 3 4 3 2 1 1 2 1 2 3 3 3 3 3 4 4 4 4 5 5 5 5 5 5 5 6 6 5 5 5
5 5 4 3 2 3 2 2 2 2 1 2 2 2 2 4 3 2 1 1 0 2 2 2 3 3 4 4 4 4 4 4 4 4 4 4 4 4 5 5 5 5 5
5 5 5 4 3 3 2 1 2 3 1 1 1 3 2 2 2 3 2 1 1 1 0 2 2 3 3 3 3 4 4 4 4 3 3 3 3 3 3 4 4 4 4
4 4 5 4 3 3 3 2 2 2 3 1 1 1 1 3 2 1 3 3 2 0 1 1 2 2 3 3 2 2 3 3 4 3 2 2 2 2 2 3 3 4 4
2 3 4 4 3 2 3 2 2 2 2 2 1 0 1 1 1 2 1 3 3 2 1 1 2 2 3 3 2 2 2 3 3 3 3 3 3 3 3 3 3 3 3
1 2 3 3 3 3 3 3 2 3 2 2 1 1 2 2 1 2 2 2 2 2 1 0 1 2 2 3 3 3 2 2 2 2 3 4 3 3 3 3 3 3 3
1 2 2 3 3 3 3 3 3 3 2 2 2 1 2 2 2 2 2 1 1 2 1 1 1 2 2 3 3 3 3 1 1 1 2 2 3 3 3 2 2 2 2
3 3 3 3 3 3 3 3 2 3 3 3 3 2 1 2 2 2 3 3 1 1 1 2 1 2 3 4 4 4 3 2 1 0 1 2 2 2 3 2 2 2 2
2 2 2 2 3 3 3 3 3 3 3 3 3 3 2 2 2 2 3 4 4 2 2 2 2 2 3 3 4 4 3 3 2 1 0 1 1 2 2 2 2 2 2
2 2 2 2 2 2 2 3 3 3 3 3 3 3 3 2 2 2 2 2 3 4 3 3 3 2 2 3 4 3 4 3 3 2 1 1 1 1 1 2 2 2 1
3 3 3 3 3 2 2 3 3 3 4 4 3 3 4 3 2 2 2 2 2 3 3 2 1 1 1 2 1 2 3 3 3 4 3 3 2 2 1 1 1 1 1
3 4 3 3 3 3 3 3 4 3 4 5 5 4 4 3 3 3 3 3 3 3 3 3 1 1 2 2 2 1 1 2 3 4 4 4 3 3 3 2 2 1 1
3 3 3 4 4 4 4 4 4 4 5 5 5 5 5 4 4 3 3 4 3 3 2 3 2 1 1 1 0 1 1 1 2 3 3 4 4 4 3 3 3 2 2
4 4 4 4 4 4 4 4 3 3 4 4 5 5 6 6 6 5 4 5 4 3 2 3 2 1 1 1 1 1 1 1 2 2 2 3 3 3 4 4 4 4 3
4 4 4 3 2 3 3 3 3 3 3 3 3 4 5 6 7 6 5 5 5 4 3 3 3 1 1 1 2 2 2 1 2 1 1 2 1 2 3 4 4 4 5
3 3 4 4 3 3 3 4 4 4 4 4 4 4 3 4 6 7 7 7 8 7 6 4 4 4 4 3 2 2 1 0 2 2 1 2 1 2 3 4 5 6 5
3 3 4 4 4 5 5 4 5 3 4 4 4 4 3 3 3 3 5 5 7 8 9 7 6 6 5 5 5 3 3 3 3 3 1 2 2 3 4 5 7 7 6
3 4 4 4 4 5 6 5 5 4 3 3 4 4 3 3 3 3 3 3 4 4 6 5 6 6 6 6 7 6 5 2 1 1 2 2 2 3 3 5 7 7 6
4 4 4 4 4 5 6 6 4 2 2 3 3 3 3 3 4 4 4 3 2 2 3 3 4 4 5 5 5 4 3 2 2 2 1 2 2 2 2 3 5 6 6
4 4 3 3 4 4 5 5 4 2 2 2 2 3 4 4 4 5 5 4 3 2 1 1 0 0 1 3 5 6 6 4 2 2 2 2 1 0 1 2 2 3 4
Wind_Direction
109 108 90 72 61 65 63 57 67 67 72 79 88 92 86 81 78 76 73 75 78 78 80 82 83 81 80 78 76 76 76 74 75 75 77 76 72 69 74 76 76 76 75
127 116 89 77 69 65 67 77 87 76 68 80 77 85 94 93 88 85 77 71 71 73 76 78 80 83 83 82 79 76 76 74 73 72 72 72 70 66 71 75 73 71 71
128 121 103 87 84 83 78 74 69 70 67 72 72 77 89 91 93 90 83 77 70 71 74 75 76 81 87 88 85 80 79 75 72 69 68 69 70 70 71 71 70 70 67
125 115 107 104 98 87 80 75 69 68 61 65 64 62 75 92 96 96 91 87 79 72 68 71 75 77 84 89 90 85 82 78 74 70 66 64 65 65 63 63 67 68 66
119 113 113 112 102 86 73 85 70 84 76 63 69 60 59 82 99 108 95 99 98 88 80 67 65 73 82 86 89 89 84 79 78 73 68 63 61 61 59 56 61 65 69
117 113 108 102 98 88 68 68 73 62 84 82 74 48 22 28 54 88 113 110 104 101 94 78 63 61 71 80 78 80 84 81 78 73 66 63 59 56 53 53 57 58 70
113 112 108 104 102 106 106 96 93 70 53 66 70 32 7 15 32 42 74 99 104 120 109 100 91 74 60 61 69 68 73 80 77 71 64 63 61 55 49 50 52 52 60
121 124 121 124 120 109 91 87 92 91 47 62 106 87 19 357 359 9 30 103 118 125 111 115 103 92 79 69 66 64 58 65 72 71 63 61 61 57 50 41 43 46 51
126 128 132 128 128 126 132 133 119 119 123 4 95 131 133 221 309 340 354 18 29 101 141 144 131 133 110 88 71 65 69 66 64 63 57 59 58 53 51 41 44 51 53
134 135 140 137 143 143 147 156 125 123 128 139 339 49 150 157 151 312 333 342 344 320 218 158 143 152 143 127 103 84 84 75 66 53 42 39 35 43 42 43 52 51 45
142 143 143 144 154 156 163 158 136 128 130 151 169 145 76 69 112 146 268 316 340 324 303 197 162 156 156 154 147 125 103 86 71 47 32 33 40 49 46 47 52 42 31
189 176 155 156 166 169 178 179 165 158 156 145 153 149 147 148 176 155 195 251 278 303 326 320 180 166 162 168 172 160 138 104 79 46 32 32 31 33 35 35 41 31 22
208 225 191 189 187 184 181 173 173 184 181 171 184 200 193 197 177 164 162 202 249 295 334 324 261 193 179 175 183 172 163 146 112 47 16 23 27 19 15 13 13 12 9
210 208 193 195 196 188 186 178 187 205 194 197 204 200 206 219 188 174 169 160 154 324 326 276 295 223 200 186 192 177 179 182 177 197 354 17 16 9 360 356 350 345 351
209 188 184 193 203 195 192 184 201 215 207 212 214 210 212 222 200 193 176 167 162 189 247 257 264 260 219 196 197 179 194 208 207 216 245 4 0 355 354 354 343 332 334
199 188 192 194 199 197 194 190 210 215 201 218 219 217 226 228 213 198 184 177 171 172 209 239 239 250 217 205 208 198 214 223 221 226 235 293 327 314 309 333 342 346 337
196 197 201 201 204 210 210 200 212 211 209 220 225 218 230 224 215 214 190 175 175 162 190 247 244 244 190 194 196 216 232 226 233 240 244 257 271 274 272 305 321 330 329
204 202 197 198 205 209 212 206 218 219 215 219 223 221 234 223 219 209 192 190 185 178 172 196 231 232 228 212 198 206 230 239 239 252 246 249 263 263 253 251 269 283 273
209 210 201 205 210 211 213 215 219 223 223 224 219 216 221 203 214 208 195 193 187 176 161 170 208 226 260 205 154 247 253 281 257 261 246 253 266 265 247 244 246 253 267
198 204 211 217 218 213 211 212 218 228 234 239 231 220 214 205 207 204 201 196 184 173 164 170 193 219 241 217 151 186 270 281 271 258 255 253 263 265 251 247 245 246 254
206 202 201 215 216 212 211 200 206 219 225 241 248 236 224 217 212 204 202 195 184 182 177 184 195 196 205 193 209 205 223 278 281 252 279 270 266 279 268 254 253 250 255
216 202 200 202 208 224 225 202 194 212 217 222 234 245 248 231 229 216 208 197 186 186 191 191 196 200 212 208 198 195 187 181 270 255 193 270 210 254 263 254 259 255 256
220 214 213 204 214 227 222 213 204 204 214 220 224 228 247 247 235 221 220 211 210 205 193 187 195 208 205 202 185 193 204 207 232 232 169 254 247 253 264 259 262 261 256
213 218 223 215 220 238 232 224 215 200 214 225 222 216 221 243 232 206 211 212 222 218 208 198 202 212 211 202 194 195 200 206 264 244 163 220 246 256 271 259 258 260 261
216 221 222 221 225 247 241 230 210 204 216 234 236 226 213 219 235 202 182 193 222 251 232 204 198 207 208 200 184 158 157 164 240 243 192 188 235 271 273 265 266 261 259
216 214 226 228 227 238 239 227 206 191 208 229 241 239 229 217 214 184 178 183 207 236 234 225 222 219 200 185 176 178 182 186 201 225 216 182 210 186 284 274 273 278 272
Height
1537 1537 1537 1537 1537 1537 1537 1536 1536 1536 1536 1536 1535 1535 1535 1534 1534 1533 1533 1532 1532 1532 1531 1531 1530 1530 1529 1529 1528 1528 1527 1527 1527 1527 1526 1527 1527 1527 1527 1527 1527 1527 1527
1538 1538 1538 1538 1538 1538 1538 1538 1537 1537 1537 1536 1536 1536 1536 1535 1535 1534 1534 1534 1533 1533 1532 1532 1531 1531 1530 1529 1529 1529 1528 1528 1528 1528 1527 1527 1527 1527 1527 1527 1527 1527 1527
1539 1539 1539 1539 1539 1539 1538 1538 1538 1538 1537 1537 1537 1537 1536 1536 1536 1535 1535 1534 1534 1534 1534 1533 1532 1532 1531 1531 1530 1530 1530 1529 1529 1528 1528 1528 1528 1528 1528 1528 1528 1527 1527
1539 1539 1539 1539 1539 1539 1539 1539 1538 1538 1538 1537 1537 1537 1537 1537 1536 1536 1535 1535 1535 1535 1534 1534 1533 1533 1532 1532 1532 1531 1531 1530 1530 1529 1529 1528 1528 1528 1528 1528 1528 1527 1528
1539 1539 1539 1539 1539 1539 1539 1539 1539 1538 1538 1538 1538 1537 1537 1537 1537 1536 1536 1536 1535 1535 1535 1535 1534 1534 1533 1533 1532 1532 1532 1531 1530 1530 1529 1529 1529 1528 1528 1528 1528 1528 1528
1539 1539 1539 1539 1539 1539 1539 1539 1539 1538 1538 1538 1538 1537 1537 1537 1537 1537 1537 1536 1536 1536 1535 1535 1535 1534 1534 1533 1533 1533 1532 1532 1531 1530 1530 1529 1529 1529 1528 1528 1528 1528 1527
1539 1539 1539 1539 1539 1539 1538 1538 1538 1538 1538 1538 1537 1537 1538 1538 1538 1537 1537 1536 1536 1536 1535 1535 1535 1534 1534 1534 1533 1533 1532 1532 1531 1531 1530 1530 1529 1529 1528 1528 1528 1528 1527
1539 1538 1538 1538 1538 1538 1538 1538 1538 1537 1537 1537 1537 1537 1537 1539 1538 1537 1537 1536 1536 1536 1535 1535 1535 1534 1534 1533 1533 1533 1532 1532 1531 1531 1530 1530 1529 1529 1528 1528 1528 1527 1527
1538 1537 1537 1537 1537 1537 1537 1537 1537 1537 1537 1537 1537 1537 1537 1537 1537 1537 1537 1536 1536 1535 1535 1535 1534 1534 1534 1533 1533 1533 1532 1532 1531 1531 1530 1530 1529 1529 1528 1528 1527 1527 1527
1536 1536 1536 1536 1536 1536 1536 1536 1536 1536 1536 1536 1536 1536 1537 1536 1536 1536 1536 1536 1535 1535 1534 1534 1534 1533 1533 1533 1533 1532 1532 1531 1531 1530 1530 1529 1529 1528 1528 1527 1527 1527 1526
1534 1534 1534 1535 1535 1534 1535 1535 1535 1535 1535 1535 1535 1535 1535 1535 1535 1535 1534 1534 1534 1534 1534 1533 1533 1533 1533 1532 1532 1532 1531 1531 1530 1530 1529 1529 1528 1528 1527 1527 1526 1526 1526
1533 1533 1533 1533 1533 1533 1533 1533 1533 1533 1533 1534 1534 1533 1533 1533 1533 1533 1533 1533 1532 1533 1532 1532 1532 1532 1532 1531 1531 1531 1531 1530 1530 1529 1529 1528 1528 1527 1526 1526 1526 1525 1525
1530 1531 1531 1531 1531 1531 1531 1531 1531 1531 1532 1532 1532 1532 1532 1532 1532 1532 1532 1531 1531 1531 1531 1531 1531 1531 1531 1530 1530 1530 1530 1529 1529 1528 1528 1527 1527 1526 1526 1525 1525 1524 1524
1528 1528 1528 1529 1529 1529 1529 1529 1529 1529 1529 1530 1530 1530 1530 1530 1531 1530 1530 1530 1529 1530 1529 1530 1530 1530 1530 1529 1529 1529 1528 1528 1528 1527 1527 1526 1526 1525 1525 1524 1524 1523 1523
1526 1526 1526 1526 1526 1526 1526 1526 1526 1527 1527 1527 1528 1528 1528 1528 1528 1528 1528 1528 1528 1527 1527 1527 1528 1528 1528 1528 1528 1527 1527 1527 1526 1526 1525 1525 1525 1524 1524 1523 1522 1522 1521
1523 1523 1523 1523 1523 1524 1524 1524 1524 1524 1524 1525 1525 1525 1525 1526 1526 1526 1526 1526 1526 1526 1526 1526 1526 1526 1526 1526 1526 1526 1525 1525 1525 1524 1524 1523 1523 1523 1522 1522 1521 1520 1520
1520 1520 1520 1520 1520 1520 1521 1521 1521 1521 1521 1521 1522 1522 1522 1523 1523 1523 1523 1523 1523 1524 1523 1524 1524 1524 1524 1524 1524 1524 1524 1523 1523 1523 1523 1522 1522 1521 1520 1520 1520 1519 1519
1516 1516 1517 1517 1517 1517 1517 1517 1517 1518 1518 1518 1518 1519 1519 1519 1519 1520 1520 1520 1520 1521 1521 1521 1521 1521 1522 1522 1522 1522 1522 1522 1521 1521 1521 1520 1520 1519 1519 1518 1518 1518 1517
1512 1513 1513 1513 1513 1513 1514 1514 1514 1514 1514 1514 1515 1515 1516 1516 1516 1516 1517 1517 1517 1518 1518 1519 1519 1519 1519 1520 1520 1520 1520 1520 1520 1519 1519 1519 1518 1518 1517 1517 1516 1516 1516
1508 1509 1509 1509 1509 1509 1510 1510 1510 1510 1510 1511 1511 1512 1512 1512 1512 1513 1513 1514 1514 1515 1515 1516 1516 1516 1517 1517 1517 1517 1517 1517 1517 1517 1517 1517 1516 1515 1515 1515 1514 1514 1514
1505 1505 1505 1505 1505 1505 1505 1506 1506 1506 1507 1507 1507 1508 1508 1509 1509 1510 1510 1510 1511 1511 1512 1512 1513 1513 1513 1514 1514 1514 1514 1515 1515 1515 1514 1514 1514 1513 1513 1512 1512 1511 1511
1501 1501 1501 1501 1501 1502 1501 1502 1502 1503 1503 1503 1503 1504 1504 1504 1505 1506 1506 1507 1507 1508 1508 1509 1509 1509 1509 1510 1511 1511 1511 1511 1511 1512 1511 1511 1511 1510 1510 1509 1509 1509 1509
1497 1497 1497 1497 1497 1497 1498 1498 1498 1499 1499 1499 1499 1500 1500 1500 1501 1501 1502 1503 1503 1504 1505 1505 1505 1505 1506 1507 1508 1508 1508 1508 1508 1509 1508 1507 1507 1507 1507 1507 1507 1506 1506
1493 1492 1493 1493 1493 1493 1494 1494 1494 1494 1494 1495 1495 1495 1496 1496 1497 1497 1498 1499 1499 1500 1500 1501 1502 1502 1503 1504 1504 1505 1505 1505 1506 1506 1506 1504 1504 1504 1504 1504 1503 1503 1503
1488 1488 1488 1488 1489 1489 1489 1490 1490 1490 1490 1490 1491 1491 1492 1492 1493 1493 1494 1494 1495 1496 1497 1497 1498 1499 1499 1500 1500 1501 1501 1501 1501 1501 1502 1501 1500 1500 1500 1500 1500 1500 1499
1484 1484 1484 1484 1485 1485 1485 1485 1486 1485 1486 1486 1486 1487 1487 1488 1489 1489 1490 1490 1491 1492 1493 1493 1494 1495 1495 1496 1496 1497 1497 1497 1497 1497 1497 1498 1497 1497 1496 1496 1496 1496 1495